Weather reports worldwide

Advertisment
Cannes, France (7684): temperature & dewpoint: 20.03.2019 08:00:00 - 26.03.2019 08:00:00 (CET)Cannes, France (7684): temperature 5cm: 20.03.2019 08:00:00 - 26.03.2019 08:00:00 (CET)Cannes, France (7684): wind speed & gusts: 20.03.2019 08:00:00 - 26.03.2019 08:00:00 (CET)Cannes, France (7684): wind direction: 20.03.2019 08:00:00 - 26.03.2019 08:00:00 (CET)Cannes, France (7684): reduced air pressure: 20.03.2019 08:00:00 - 26.03.2019 08:00:00 (CET)Cannes, France (7684): visibility: 20.03.2019 08:00:00 - 26.03.2019 08:00:00 (CET)Cannes, France (7684): precipitation: 20.03.2019 08:00:00 - 26.03.2019 08:00:00 (CET)
Date & Time tt [°C] td [°C] tt 5cm [°C] ff [km/h] ff [kn] fx [km/h] fx [kn] dd ppp [hPa] vv [km] rr [mm]
26.03.2019 08:00:00 10,4 2,0 8,1 3 2 10 5 NE 1016,6 60 0,0
26.03.2019 07:00:00 11,8 0,5 6,9 6 4 42 23 SE 1015,7 60 0,0
26.03.2019 06:00:00 10,3 1,9 6,5 21 11 48 26 S 1014,6 20 0,4
26.03.2019 05:00:00 12,2 0,6 7,1 9 5 35 19 NE 1014,3 42 0,2
26.03.2019 04:00:00 11,4 5,0 8,3 14 8 40 22 NNW 1012,6 6 1,0
26.03.2019 03:00:00 12,5 8,4 10,2 26 14 46 25 WNW 1010,5 10 0,2
26.03.2019 02:00:00 13,4 9,6 10,6 5 3 24 13 W 1010,1 20 0,0
26.03.2019 01:00:00 11,9 9,6 10,3 6 3 21 11 N 1009,3 15 0,0
26.03.2019 00:00:00 14,1 10,5 10,4 10 5 25 14 ESE 1009,9 18 0,0
25.03.2019 23:00:00 11,5 9,6 9,1 0 0 9 5 N 1010,0 11 0,0
25.03.2019 22:00:00 10,8 8,9 7,5 0 0 10 5 N 1009,1 11 0,0
25.03.2019 21:00:00 12,0 9,4 7,5 4 2 7 4 N 1008,6 14 0,0
25.03.2019 20:00:00 13,0 9,8 8,3 2 1 13 7 N 1008,4 19 0,0
25.03.2019 19:00:00 13,7 9,9 11,7 5 3 21 11 N 1008,6 20 0,0
25.03.2019 18:00:00 15,2 9,5 16,1 11 6 23 12 E 1008,8 20 0,0
25.03.2019 17:00:00 16,6 10,4 17,3 9 5 25 13 SE 1009,3 20 0,0
25.03.2019 16:00:00 15,8 11,4 19,4 15 8 26 14 SSE 1009,9 20 0,0
25.03.2019 15:00:00 17,0 10,8 23,6 16 8 29 16 SE 1010,4 19 0,0
25.03.2019 14:00:00 17,8 10,7 24,9 16 9 26 14 SSE 1011,4 19 0,0
25.03.2019 13:00:00 16,7 10,8 24,4 16 9 28 15 S 1012,7 19 0,0
25.03.2019 12:00:00 16,8 10,4 25,1 13 7 21 12 S 1013,7 19 0,0
25.03.2019 11:00:00 16,8 10,9 23,6 11 6 22 12 S 1014,7 19 0,0
25.03.2019 10:00:00 15,7 10,0 21,5 9 5 16 8 S 1015,1 24 0,0
25.03.2019 09:00:00 13,7 8,7 12,6 4 2 13 7 N 1015,3 18 0,0
25.03.2019 08:00:00 8,6 5,2 5,2 8 4 15 8 N 1015,8 19 0,0
25.03.2019 07:00:00 5,8 3,5 3,5 10 5 16 9 NNE 1016,2 29 0,0
25.03.2019 06:00:00 5,5 3,0 3,3 8 5 14 8 NNE 1016,1 30 0,0
25.03.2019 05:00:00 5,8 3,1 3,0 5 3 13 7 NNE 1016,0 34 0,0
25.03.2019 04:00:00 6,1 3,1 3,1 8 4 13 7 N 1016,2 35 0,0
25.03.2019 03:00:00 6,6 3,4 3,3 4 2 11 6 N 1016,8 37 0,0
25.03.2019 02:00:00 7,2 3,6 4,4 7 4 14 8 NNE 1017,2 34 0,0
25.03.2019 01:00:00 7,7 4,3 5,2 5 3 11 6 NNE 1017,5 31 0,0
25.03.2019 00:00:00 8,3 4,9 5,1 6 3 12 7 NNE 1017,9 26 0,0
24.03.2019 23:00:00 9,2 5,6 5,7 5 3 9 5 NNE 1018,4 26 0,0
24.03.2019 22:00:00 10,2 6,7 6,9 4 2 9 5 N 1018,9 12 0,0
24.03.2019 21:00:00 11,2 7,3 5,6 5 3 10 5 N 1019,3 14 0,0
24.03.2019 20:00:00 13,2 8,1 7,0 3 2 7 4 NE 1019,5 26 0,0
24.03.2019 19:00:00 14,8 8,1 10,0 3 1 11 6 NE 1019,5 36 0,0
24.03.2019 18:00:00 16,2 9,6 18,3 6 3 13 7 ESE 1019,4 20 0,0
24.03.2019 17:00:00 17,9 9,5 22,4 11 6 19 11 SSE 1019,7 60 0,0
24.03.2019 16:00:00 19,6 9,2 25,7 9 5 20 11 SE 1020,0 54 0,0
24.03.2019 15:00:00 20,5 7,5 27,2 12 7 27 14 S 1020,4 48 0,0
24.03.2019 14:00:00 21,1 6,6 28,1 17 9 29 16 S 1020,9 53 0,0
24.03.2019 13:00:00 21,0 3,7 27,2 11 6 25 13 SSE 1021,8 55 0,0
24.03.2019 12:00:00 19,3 5,0 27,6 10 5 16 8 S 1022,5 60 0,0
24.03.2019 11:00:00 18,5 3,1 26,2 9 5 15 8 S 1023,0 60 0,0
24.03.2019 10:00:00 19,9 2,3 21,2 4 2 11 6 S 1023,1 60 0,0
24.03.2019 09:00:00 14,6 2,1 13,5 9 5 15 8 N 1023,1 54 0,0
24.03.2019 08:00:00 9,6 1,5 5,9 6 3 13 7 NNE 1023,1 56 0,0
24.03.2019 07:00:00 6,3 0,4 3,7 7 4 15 8 NNE 1022,8 56 0,0
24.03.2019 06:00:00 6,4 0,5 2,9 7 4 13 7 NNE 1022,6 56 0,0
24.03.2019 05:00:00 7,0 0,6 3,8 8 4 12 7 NNE 1022,5 59 0,0
24.03.2019 04:00:00 7,8 0,7 5,1 8 4 16 8 N 1022,3 56 0,0
24.03.2019 03:00:00 7,9 0,8 5,6 8 5 17 9 N 1022,4 51 0,0
24.03.2019 02:00:00 8,2 1,1 5,4 10 5 14 8 N 1022,7 49 0,0
24.03.2019 01:00:00 8,0 1,4 5,2 9 5 16 8 N 1022,8 39 0,0
24.03.2019 00:00:00 8,6 1,7 2,8 7 4 14 8 NNE 1023,1 35 0,0
23.03.2019 23:00:00 9,6 2,0 3,0 0 0 13 7 N 1023,2 32 0,0
23.03.2019 22:00:00 10,2 2,5 6,2 7 4 14 8 NNE 1023,0 35 0,0
23.03.2019 21:00:00 10,5 3,1 6,4 5 3 13 7 N 1022,9 38 0,0
23.03.2019 20:00:00 11,9 2,9 4,9 6 3 13 7 NNE 1022,7 41 0,0
23.03.2019 19:00:00 14,5 5,0 6,0 0 0 9 5 N 1022,5 48 0,0
23.03.2019 18:00:00 17,6 2,3 20,2 2 1 11 6 SW 1022,2 41 0,0
23.03.2019 17:00:00 18,4 2,2 24,5 7 4 13 7 S 1022,4 20 0,0
23.03.2019 16:00:00 19,1 -0,4 27,0 8 4 14 8 S 1022,7 20 0,0
23.03.2019 15:00:00 19,2 -0,3 26,2 7 4 20 11 S 1023,2 20 0,0
23.03.2019 14:00:00 19,5 4,0 27,1 9 5 16 8 S 1023,5 60 0,0
23.03.2019 13:00:00 18,1 4,6 27,1 8 5 18 10 S 1024,3 56 0,0
23.03.2019 12:00:00 18,2 5,4 26,8 11 6 16 8 S 1024,5 55 0,0
23.03.2019 11:00:00 18,1 4,3 26,5 9 5 13 7 S 1024,4 60 0,0
23.03.2019 10:00:00 18,6 2,8 21,1 5 3 10 5 SSE 1024,3 60 0,0
23.03.2019 09:00:00 14,1 0,7 11,8 7 4 16 8 N 1024,3 47 0,0
23.03.2019 08:00:00 8,6 0,6 6,1 7 4 16 9 N 1024,4 57 0,0
23.03.2019 07:00:00 5,8 -0,1 3,5 8 4 16 9 N 1024,6 38 0,0
23.03.2019 06:00:00 5,7 -0,4 3,8 9 5 17 9 N 1024,4 19 0,0
23.03.2019 05:00:00 6,5 -0,3 3,8 9 5 16 9 NNE 1024,2 55 0,0
23.03.2019 04:00:00 6,1 -0,2 3,7 8 4 16 9 N 1024,5 46 0,0
23.03.2019 03:00:00 6,2 -0,1 4,2 9 5 15 8 N 1025,0 50 0,0
23.03.2019 02:00:00 7,3 -0,2 4,2 9 5 18 10 N 1025,5 46 0,0
23.03.2019 01:00:00 7,9 -0,1 2,7 6 3 13 7 NNE 1025,7 46 0,0
23.03.2019 00:00:00 9,2 -0,2 4,7 5 3 11 6 NNE 1025,9 45 0,0
22.03.2019 23:00:00 9,9 0,2 3,1 6 4 13 7 NNE 1026,1 49 0,0
22.03.2019 22:00:00 10,0 0,6 3,5 6 3 9 5 NNE 1026,0 46 0,0
22.03.2019 21:00:00 10,8 0,8 5,8 5 3 10 5 N 1026,1 55 0,0
22.03.2019 20:00:00 12,4 0,2 7,9 5 3 10 5 N 1025,8 49 0,0
22.03.2019 19:00:00 15,1 -1,9 6,6 4 2 8 4 NNE 1025,6 60 0,0
22.03.2019 18:00:00 18,9 -1,0 20,4 4 2 9 5 SE 1025,6 60 0,0
22.03.2019 17:00:00 19,3 -0,2 25,7 6 3 13 7 SSW 1025,8 60 0,0
22.03.2019 16:00:00 19,7 -1,5 26,0 9 5 21 11 S 1026,2 60 0,0
22.03.2019 15:00:00 19,6 2,4 25,5 11 6 20 11 SSE 1026,7 20 0,0
22.03.2019 14:00:00 20,2 -1,0 26,1 8 4 18 10 SSW 1027,2 19 0,0
22.03.2019 13:00:00 17,7 4,3 25,5 11 6 23 12 S 1027,9 44 0,0
22.03.2019 12:00:00 17,5 2,6 24,4 11 6 21 11 S 1028,3 53 -
22.03.2019 11:00:00 16,3 7,2 23,6 12 6 20 11 S 1028,1 20 0,0
22.03.2019 10:00:00 18,2 2,1 20,0 4 2 13 7 SSE 1027,6 20 0,0
22.03.2019 09:00:00 13,2 -1,2 10,7 7 4 14 8 N 1027,3 19 0,0
22.03.2019 08:00:00 8,4 -1,2 3,7 8 4 17 9 N 1027,4 60 0,0
22.03.2019 07:00:00 4,9 -1,8 2,6 10 5 17 9 N 1027,1 50 0,0
22.03.2019 06:00:00 5,0 -1,7 2,4 9 5 16 8 NNE 1026,8 57 0,0
22.03.2019 05:00:00 5,1 -1,4 3,1 8 5 15 8 N 1026,8 57 0,0
22.03.2019 04:00:00 5,4 -1,1 3,4 8 5 16 8 N 1026,9 53 0,0
22.03.2019 03:00:00 6,7 -1,0 3,7 8 5 14 8 NNE 1027,0 48 0,0
22.03.2019 02:00:00 7,6 -1,1 5,3 6 3 18 10 NE 1027,1 54 0,0
22.03.2019 01:00:00 7,8 -0,7 5,5 8 4 19 10 NNE 1027,0 51 0,0
22.03.2019 00:00:00 7,6 0,1 4,7 10 5 17 9 N 1027,4 34 0,0
21.03.2019 23:00:00 7,6 0,8 2,9 7 4 13 7 NNE 1027,6 29 0,0
21.03.2019 22:00:00 8,5 1,2 1,3 4 2 6 3 NNE 1027,2 31 0,0
21.03.2019 21:00:00 9,6 1,0 3,8 3 2 9 5 N 1027,0 30 0,0
21.03.2019 20:00:00 11,5 0,9 5,5 5 3 9 5 N 1027,0 39 0,0
21.03.2019 19:00:00 13,7 0,7 6,5 3 1 8 4 WSW 1026,5 60 0,0
21.03.2019 18:00:00 16,9 0,9 19,4 5 3 12 6 SW 1026,1 60 0,0
21.03.2019 17:00:00 18,0 1,9 23,6 5 3 16 9 SW 1026,3 52 0,0
21.03.2019 16:00:00 17,9 1,0 24,8 10 6 21 12 S 1026,3 57 0,0
21.03.2019 15:00:00 17,9 1,0 24,6 12 7 22 12 S 1026,7 20 0,0
21.03.2019 14:00:00 18,3 -3,8 25,5 7 4 15 8 SSW 1027,1 56 0,0
21.03.2019 13:00:00 16,6 0,2 24,3 11 6 18 10 S 1028,0 20 0,0
21.03.2019 12:00:00 16,1 -0,2 24,6 12 6 16 9 S 1028,3 60 0,0
21.03.2019 11:00:00 15,6 0,9 24,3 10 5 15 8 S 1028,5 60 0,0
21.03.2019 10:00:00 14,5 -1,6 17,2 2 1 11 6 NNE 1028,4 60 0,0
21.03.2019 09:00:00 10,0 -0,5 7,4 7 4 19 10 N 1028,3 20 0,0
21.03.2019 08:00:00 5,4 -1,1 1,3 7 4 16 8 N 1028,2 33 0,0
21.03.2019 07:00:00 3,0 -2,1 0,6 6 3 15 8 N 1027,7 53 0,0
21.03.2019 06:00:00 4,1 -2,5 2,1 8 4 18 10 NNE 1027,1 53 0,0
21.03.2019 05:00:00 4,2 -2,2 0,4 10 5 18 10 N 1027,1 52 0,0
21.03.2019 04:00:00 4,1 -1,7 1,5 6 4 20 11 N 1027,3 46 0,0
21.03.2019 03:00:00 4,0 -0,8 1,5 8 4 15 8 N 1027,8 40 0,0
21.03.2019 02:00:00 3,8 0,0 1,6 5 3 19 10 N 1028,3 38 0,0
21.03.2019 01:00:00 4,8 0,4 0,6 8 4 13 7 NNE 1028,5 37 0,0
21.03.2019 00:00:00 6,1 0,4 1,2 4 2 13 7 NNE 1028,8 43 0,0
20.03.2019 23:00:00 7,5 0,7 3,4 6 3 16 8 NE 1028,6 44 0,0
20.03.2019 22:00:00 7,4 1,2 4,4 7 4 13 7 N 1028,4 31 0,0
20.03.2019 21:00:00 8,2 1,6 5,2 6 3 13 7 N 1028,2 43 0,0
20.03.2019 20:00:00 9,7 1,8 4,4 7 4 11 6 NNE 1028,1 32 0,0
20.03.2019 19:00:00 12,4 1,7 7,3 6 3 19 11 WNW 1027,6 43 0,0
20.03.2019 18:00:00 14,6 1,5 15,6 8 4 23 12 ESE 1027,1 60 0,0
20.03.2019 17:00:00 15,3 1,4 19,1 13 7 29 16 SE 1026,6 58 0,0
20.03.2019 16:00:00 15,5 0,9 20,3 16 9 35 19 SE 1026,6 20 0,0
20.03.2019 15:00:00 16,4 -1,7 21,9 14 8 33 18 SSE 1026,5 56 0,0
20.03.2019 14:00:00 16,6 -0,2 22,5 14 8 31 17 SE 1026,7 60 0,0
20.03.2019 13:00:00 16,4 -1,7 22,4 16 9 28 15 S 1027,3 50 0,0
20.03.2019 12:00:00 15,6 0,2 21,7 13 7 22 12 SSE 1027,8 19 0,0
20.03.2019 11:00:00 14,7 1,2 21,5 13 7 21 12 S 1027,8 60 0,0
20.03.2019 10:00:00 14,7 -1,0 16,6 2 1 11 6 SSW 1027,5 60 0,0
20.03.2019 09:00:00 9,6 0,5 7,2 8 4 18 10 N 1027,2 60 0,0
20.03.2019 08:00:00 5,5 0,1 1,7 9 5 17 9 N 1026,6 59 0,0

tt = temperature
td = dewpoint
tt 5cm = temperature 5cm
ff = wind speed
fx = gusts
dd = wind direction
ppp = reduced air pressure
vv = visibility
rr = precipitation

Next stations